Skip Page Navigation
NASA JPL Caltech
NASA Logo - Jet Propulsion Laboratory + View the NASA Portal
+ Near-Earth Object (NEO) Program
Search JPL
JPL Home Earth Solar System Stars & Galaxies Technology
JPL Solar System Dynamics
BODIES ORBITS EPHEMERIDES TOOLS PHYSICAL DATA DISCOVERY FAQ SITE MAP
JPL Small-Body Database Browser
Search: [ help ]  
53910 Janfischer (2000 GF4)
Classification: Main-belt Asteroid          SPK-ID: 2053910
Ephemeris | Orbit Diagram | Orbital Elements | Physical Parameters | Discovery Circumstances ]

[ show orbit diagram ]
Orbital Elements at Epoch 2457600.5 (2016-Jul-31.0) TDB
Reference: JPL 15 (heliocentric ecliptic J2000)
 Element Value Uncertainty (1-sigma)   Units 
e .1220685716191978 4.6057e-08  
a 2.404953566493044 1.4977e-08 au
q 2.111384319820742 1.0975e-07 au
i .02207312318963401 5.5888e-06 deg
node 320.9154498845318 0.014086 deg
peri 110.037654037619 0.014086 deg
M 250.8672197542929 2.7243e-05 deg
tp 2458013.463044487377
(2017-Sep-16.96304449)
0.00010329 JED
period 1362.255187494904
3.73
1.2726e-05
3.484e-08
d
yr
n .2642676668106625 2.4687e-09 deg/d
Q 2.698522813165345 1.6806e-08 au
  Orbit Determination Parameters
   # obs. used (total)      759  
   data-arc span      7007 days (19.18 yr)  
   first obs. used      1996-03-11  
   last obs. used      2015-05-18  
   planetary ephem.      DE431  
   SB-pert. ephem.      SB431-BIG16  
   condition code      0  
   fit RMS      .55586  
   data source      ORB  
   producer      Otto Matic  
   solution date      2015-Jun-04 17:58:15  

Additional Information
 Earth MOID = 1.12419 au 
 Jupiter MOID = 2.54747 au 
 T_jup = 3.513 
[ show covariance matrix ]

Ephemeris | Orbit Diagram | Orbital Elements | Physical Parameters | Discovery Circumstances ]

Physical Parameter Table
Parameter Symbol Value Units Sigma Reference Notes
absolute magnitude H 15.5 mag n/a MPO280058  

53910 Jánfischer           Discovered 2000 Apr. 6 by L. Kornoš and D. Kalmančok at the Modra Observatory of the Comenius University.
Ján Fischer (1905-1980) was a theoretical physicist and professor at Comenius University, Bratislava. He studied interaction between matter and electromagnetic radiation and significantly contributed to the quantum theory of photoelectric effect and Compton phenomenon.
NOTE: some special characters may not display properly (any characters within {} are an attempt to place the proper accent above a character)
Reference: 20060219/MPCPages.arcLast Updated: 2010-06-03

Alternate Designations
 2000 GF4 = 1998 UP44 = 1998 VE23 
Ephemeris | Orbit Diagram | Orbital Elements | Physical Parameters | Discovery Circumstances ]
ABOUT SSD CREDITS/AWARDS PRIVACY/COPYRIGHT GLOSSARY LINKS
FirstGov 2016-Apr-29 10:07 UT
(server date/time)  
NASA Home Page
Site Manager:   Ryan S. Park
Webmaster  Alan B. Chamberlin